Vertical_Velocity
-0 1 1 1 1 1 0 -0 -0 -1 -0 -0 -0 -1 -1 -1 -1 -1 -1 -1 -2 -2 -2 -2 -2 -2 -1 -1 -1 -1 -1 -1 -1 -0 -0 0 0 -0 -1 -1 -1 -1 -1 -1 -1 -1 -0 -0 0 0 -1 -1 -1 -1 -2 -2 -2 -1 -0 -1 -2 -1 -1 -1 -1 -1 -1 -1 -1 -0 -0 -0 -0 -0 -0 -0 -0 -0 0 0 -0 -1 -0 -1 -1 -0 -0 -0 -0 -0 -0 -0 -0 -0 -0 -0 -0 -0 -0 -0 -1 -1 -0
0 1 1 1 1 1 1 0 -0 -0 -0 -0 -0 -1 -1 -1 -1 -1 -1 -1 -2 -2 -2 -2 -2 -2 -1 -1 -1 -1 -1 -1 -1 -0 -0 0 0 0 -0 -1 -1 -1 -1 -1 -1 -1 -0 -0 -0 -0 -0 -1 -1 -1 -1 -2 -1 -0 1 -1 -1 -1 -1 -1 -1 -1 -1 -1 -1 -1 -1 -0 -0 -0 -1 -1 -0 -0 0 -0 -0 -0 -1 -1 -0 -0 -0 -0 -0 -0 -0 -0 -0 -0 -0 -0 -0 -0 -0 -0 -0 -1 -1
-0 0 0 0 0 1 1 0 -0 -0 -0 -0 -1 -1 -2 -1 -1 -1 -1 -1 -1 -2 -2 -2 -2 -2 -1 -1 -1 -1 -1 -1 -1 -0 -0 -0 0 0 0 -0 -1 -1 -1 -1 -1 -1 -0 -1 -1 -0 0 -0 -0 -1 -1 -1 -1 0 2 -0 -1 -0 -1 -1 -1 -1 -1 -1 -1 -1 -1 -1 -1 -1 -1 -1 -0 -0 0 -0 -0 -0 -1 -1 -0 -0 -0 0 0 -0 -0 -0 -0 -0 -0 -0 -0 -0 -0 -0 -0 -0 -0
-1 -0 -1 -0 -0 0 1 0 0 0 0 -0 -0 -1 -1 -1 -1 -1 -1 -1 -1 -2 -2 -2 -2 -2 -2 -1 -1 -1 -1 -1 -1 -1 -0 -0 0 0 0 -0 -0 -1 -1 -1 -1 -1 -1 -0 -0 -0 -0 0 -0 -0 -1 -1 -0 1 1 -1 -1 -1 -1 -1 -1 -1 -1 -0 -0 -1 -1 -1 -1 -1 -1 -1 -0 -0 -0 -0 -0 -0 -1 -1 -1 -0 -0 -0 -0 -0 -0 -0 -0 -0 -0 -0 -0 -0 -0 -0 -0 -0 -0
-1 -1 -1 -1 -1 0 1 0 0 0 1 2 2 1 0 -0 -1 -1 -1 -1 -1 -2 -2 -2 -2 -2 -1 -1 -1 -1 -1 -1 -1 -1 -1 -0 -0 0 0 -0 -0 -1 -1 -0 -0 -1 -1 -1 -0 -0 -0 -0 -0 -0 -1 -0 0 0 -1 -2 -2 -1 -1 -1 -1 -1 -1 -0 -0 -1 -1 -1 -1 -1 -1 -1 -1 -0 -0 -0 -0 -0 -1 -1 -1 -1 -0 -0 -0 -0 -0 -0 -0 -0 -0 -0 -0 -0 -0 -0 -0 -0 -0
-2 -2 -2 -2 -1 -0 0 0 0 0 1 1 2 3 1 0 -0 -0 -1 -1 -1 -2 -2 -2 -2 -1 -1 -1 -1 -1 -1 -1 -1 -1 -1 -1 -0 -0 0 -0 -0 -1 -1 -0 -0 -1 -1 -1 -0 0 -0 -0 -0 -0 -0 0 0 -1 -2 -2 -2 -1 -1 -1 -1 -1 -0 -0 -0 -0 -0 -0 -0 -1 -1 -1 -1 -1 -0 -0 -0 -0 -1 -1 -1 -1 -0 -0 -0 -0 -0 -0 -0 -0 -0 -0 -0 -0 -0 -0 -0 -0 -0
-2 -2 -2 -2 -2 -1 -0 -0 -0 0 1 1 1 2 2 0 0 -0 -0 -1 -1 -2 -2 -2 -2 -1 -1 -1 -1 -1 -1 -1 -1 -1 -1 -1 -1 -0 -0 -0 -1 -1 -1 -1 -1 -1 -2 -1 -0 -0 -1 -1 -1 -0 -0 1 0 -0 -1 -1 -1 -0 -1 -0 -0 -0 -0 -0 -0 -0 -0 -0 -0 -1 -1 -1 -1 -1 -1 -0 -0 -0 -0 -0 -1 -0 -0 -0 -0 -0 -0 -0 -0 0 -0 -0 -0 -0 -0 -0 -0 -0 -0
-2 -2 -2 -2 -2 -1 -1 -0 -0 -0 0 0 0 1 1 0 0 0 -0 -1 -1 -2 -2 -2 -2 -2 -1 -1 -1 -1 -1 -1 -1 -1 -1 -1 -1 -0 -0 -0 -0 -1 -1 -1 -1 -1 -1 -1 -0 -0 -1 -1 -1 -1 -0 -0 -0 -0 -0 0 -0 -0 -0 -0 -0 -0 -0 0 -0 -0 -0 -0 -0 -1 -1 -1 -1 -1 -1 -1 -1 -0 -1 -0 -0 -0 -0 -0 -0 0 0 0 0 0 0 -0 -0 -0 -1 -0 -0 -0 -1
-1 -1 -2 -2 -2 -2 -1 -1 -1 -0 -0 -0 -0 0 0 0 0 -0 -0 -1 -1 -1 -2 -2 -2 -2 -2 -1 -1 -1 -1 -1 -1 -1 -1 -1 -1 -1 -0 -0 -0 -0 -1 -1 -1 -0 -0 -0 -0 -0 -0 -1 -1 -1 -1 -0 -0 -0 0 0 0 -0 -0 -0 -0 -0 -0 0 0 0 -0 -0 -0 -0 -0 -0 -1 -1 -1 -1 -1 -1 -0 -0 -0 -1 -0 -0 -0 -0 -0 -0 0 0 0 0 -0 -0 -0 -0 -0 -0 -0
-0 -1 -1 -2 -2 -2 -2 -1 -1 -1 -1 -1 -0 -0 0 -0 -0 -0 -0 -0 -1 -1 -1 -2 -2 -2 -2 -2 -1 -1 -1 -1 -1 -1 -1 -1 -1 -1 -0 -0 -0 -0 -0 -0 -0 -0 -0 -0 -0 -0 -0 -0 -0 -0 -0 -0 -0 -0 0 0 0 0 0 1 0 0 0 0 0 -0 -0 -0 -0 -0 -0 -0 -0 -1 -1 -1 -1 -0 -0 -0 -0 -0 -0 -0 -0 -0 -0 -0 0 0 1 0 0 -0 -0 -0 -0 -0 -0
1 0 -0 -1 -1 -2 -2 -1 -1 -1 -1 -1 -0 -0 -0 -0 1 1 -0 -0 -1 -1 -1 -1 -2 -2 -2 -2 -1 -1 -1 -1 -1 -1 -1 -1 -1 -1 -0 -0 -0 -0 -0 -0 -0 -0 -0 -0 -0 -0 -0 -0 -0 -0 -0 -0 -0 -0 -0 -0 0 0 1 1 1 0 0 0 0 -0 -0 -0 0 0 0 0 -0 -0 -0 -1 -0 -0 -1 -1 -1 -1 -0 -0 -0 -0 -0 0 1 1 1 1 0 0 0 -0 -0 -0 -0
2 1 1 0 -0 -1 -1 -1 -1 -1 -1 -1 -0 -0 -0 -0 1 1 -0 -1 -1 -1 -1 -1 -1 -2 -2 -2 -2 -1 -1 -1 -1 -1 -1 -1 -1 -1 -1 -1 -0 -0 -0 -0 -0 -0 -0 -0 -1 -1 -0 -0 -0 -1 -1 -0 -0 -0 -0 -0 -0 -0 1 1 1 1 0 0 0 0 0 1 1 1 1 0 0 0 -0 -0 -0 -1 -1 -1 -1 -1 -1 -1 -1 -0 -0 0 1 1 1 1 1 0 0 -0 -0 -0 -0
2 2 2 1 1 -0 -1 -1 -1 -1 -1 -1 -1 -0 -1 -0 -0 -0 -0 -0 -0 -0 -0 -1 -1 -1 -2 -2 -2 -1 -1 -1 -1 -1 -1 -1 -1 -1 -1 -1 -1 -1 -0 -0 -0 -0 -0 -0 -1 -1 -1 -0 -0 -1 -1 -1 -1 -0 -0 -0 -0 -0 0 0 0 0 0 0 0 0 1 1 1 1 1 0 0 0 -0 -1 -1 -1 -1 -1 -1 -1 -1 -1 -1 -1 -0 -0 0 1 1 1 1 0 0 0 -0 -0 -0
2 2 2 2 2 1 0 -0 -1 -1 -1 -1 -1 -0 -0 -0 -0 -0 -0 -0 0 0 -0 -0 -1 -1 -1 -2 -2 -1 -1 -1 -1 -1 -1 -1 -1 -1 -1 -1 -1 -1 -1 -1 -1 -0 -0 -0 -1 -1 -0 -0 -0 -1 -1 -1 -1 -0 -0 -0 -0 -0 -0 -0 -0 -0 0 0 0 1 1 2 1 1 1 0 -0 -0 -0 -1 -1 -1 -1 -1 -1 -1 -0 -1 -1 -1 -0 -0 0 0 1 1 1 0 0 0 -0 -0 -0
2 2 3 3 3 2 1 0 -1 -1 -1 -1 -1 -0 -0 -0 0 -0 -0 -0 0 0 -0 -0 -1 -1 -1 -1 -2 -1 -1 -1 -1 -1 -1 -1 -1 -1 -1 -1 -1 -1 -1 -1 -1 -1 -1 -0 -1 -0 0 0 -0 -1 -1 -1 -1 -1 -0 -0 -0 -0 -0 -0 -0 -0 0 0 1 1 1 1 0 0 0 0 -0 -0 -0 -0 -0 -0 0 -0 -0 -0 -0 -0 -0 -0 -0 -0 -0 0 0 0 0 0 0 0 0 -0 -0
1 1 2 3 3 3 2 1 0 -1 -1 -1 -1 -0 -0 0 0 -0 -0 -0 -0 -0 -0 -0 -0 -1 -1 -1 -1 -1 -1 -1 -1 -1 -1 -1 -1 -1 -1 -1 -1 -1 -1 -1 -1 -1 -1 -1 -1 -0 0 0 -0 -1 -1 -1 -1 -1 -1 -0 -0 -0 -0 -0 -0 -0 -0 0 0 0 1 0 0 0 0 1 0 0 0 0 0 0 0 0 -0 -0 -0 -0 -0 -0 -0 0 0 -0 -0 -0 0 0 0 0 0 0 -0
0 0 1 2 2 3 3 2 1 0 -0 -0 -1 -0 -0 1 0 0 0 -0 -0 -1 -0 -0 -0 -0 -1 -1 -1 -2 -1 -1 -1 -1 -1 -1 -1 -1 -1 -1 -1 -1 -1 -1 -1 -1 -1 -1 -1 -0 0 0 -0 -0 -1 -1 -1 -1 -1 -1 -0 -0 -0 0 0 0 -0 -0 -0 -0 0 0 0 0 1 1 1 1 1 1 1 0 0 -0 -0 -0 -0 -0 -0 -0 0 0 0 0 -0 -0 -0 0 0 0 0 0 0
-1 -1 -0 1 2 2 3 2 2 1 0 -0 -0 -0 -0 0 0 0 1 0 -0 -1 -0 -0 -0 -0 -0 -1 -1 -1 -1 -1 -1 -1 -1 -1 -1 -1 -0 -1 -1 -1 -1 -1 -1 -1 -1 -1 -1 -0 0 -0 -0 -0 -1 -1 -1 -1 -1 -1 -0 -0 -0 0 0 0 0 0 -0 -0 0 0 0 0 1 1 1 1 1 1 1 0 0 -0 -0 -0 -0 -0 -0 -0 -0 -0 0 0 0 0 0 0 0 0 0 0 0
-1 -1 -1 -0 1 2 3 2 2 1 1 0 -0 -0 -0 -0 -0 -0 0 0 -0 -1 -0 -0 -0 -0 -0 -0 -1 -1 -1 -1 -1 -1 -1 -1 -1 -1 -1 -1 -1 -1 -0 -0 -0 -0 -0 -1 -0 -0 -0 -0 -0 -1 -1 -1 -1 -1 -1 -1 -0 -0 -0 0 0 0 0 0 0 0 0 0 0 1 1 1 1 1 1 1 1 1 1 1 0 0 -0 -0 -0 -0 -0 -0 -0 0 0 0 0 0 -0 0 0 0 0
-0 -1 -2 -1 0 2 2 2 2 1 1 1 0 -0 -0 -0 0 0 1 0 -0 -0 0 -0 -0 -0 1 0 -1 -1 -1 -1 -1 -1 -1 -1 -1 -1 -1 -1 -1 -1 -1 -1 -1 -1 -1 -1 -1 -0 -0 -0 -0 -1 -1 -1 -1 -0 -0 -0 -0 -0 0 0 0 0 0 1 1 1 1 0 1 0 0 0 1 1 1 1 1 1 1 1 1 1 0 -0 -0 -0 -0 -0 -0 -0 -0 -0 -0 -0 -0 -0 -0 0 0
0 -0 -2 -1 0 1 2 2 1 1 1 1 0 0 0 0 -0 -0 0 -0 -0 -0 0 -0 -0 -0 1 0 -0 -1 -1 -1 -1 -1 -1 -1 -1 -1 -1 -1 -1 -1 -1 -1 -1 -1 -1 -1 -1 -1 -0 -0 -0 -1 -1 -1 -1 -0 -0 -0 -0 0 0 0 0 0 0 1 1 1 1 1 1 1 0 0 1 1 1 1 1 1 1 1 1 1 1 0 0 0 0 -0 -0 -0 -0 -0 -0 -0 0 0 0 0 0
1 0 -0 -0 0 1 1 1 1 1 1 1 1 0 0 0 0 0 0 -0 -0 -0 -0 -0 -0 -0 0 0 -0 -1 -1 -1 -1 -1 -1 -1 -1 -1 -1 -1 -1 -1 -1 -1 -1 -1 -1 -1 -1 -1 -1 -1 -1 -1 -1 -1 -1 -1 -0 -0 -0 0 0 0 0 0 0 0 0 1 1 1 1 1 1 1 1 1 1 1 0 0 0 1 1 1 1 0 0 0 0 -0 -0 -0 -0 -0 0 0 1 1 1 1 1
2 1 1 1 1 1 1 1 1 1 2 1 1 1 1 0 0 0 0 0 -0 -0 -0 -0 -0 -0 -0 0 0 -0 -0 -1 -1 -1 -1 -1 -2 -2 -2 -1 -1 -1 -1 -1 -2 -2 -2 -2 -2 -1 -1 -1 -1 -1 -1 -1 -1 -1 -1 -0 -0 -0 0 0 0 0 0 0 0 0 0 0 1 1 1 1 1 1 1 1 1 0 -0 -0 0 0 0 0 0 0 -0 -0 -0 -0 -0 -0 0 0 1 1 1 1 1
3 2 2 1 1 1 1 1 1 2 2 2 1 1 0 0 -0 -0 -0 -0 -0 -0 -0 -0 -0 -0 -0 0 0 0 1 -0 -1 -1 -1 -2 -2 -2 -2 -2 -2 -1 -1 -1 -2 -2 -2 -2 -2 -2 -1 -1 -1 -1 -1 -1 -1 -1 -1 -1 -0 -0 -0 0 0 0 0 0 0 -0 -0 -0 0 1 1 1 1 2 1 1 1 1 0 -0 0 1 1 1 1 0 0 -0 -0 -0 -0 -0 0 0 0 0 0 1 1
3 2 2 1 1 1 0 0 0 1 1 1 0 -0 -1 -1 -1 -1 -1 -1 -1 -1 -0 -0 -0 -0 -0 -0 0 0 0 -0 -0 -1 -1 -2 -2 -2 -2 -1 -1 -1 -1 -1 -2 -2 -2 -2 -2 -2 -2 -1 -1 -1 -1 -1 -1 -1 -1 -1 -1 -0 -0 -0 -0 -0 -0 0 0 -0 -0 -0 -0 -0 0 1 1 1 1 1 1 1 1 1 1 1 1 1 1 1 0 0 0 0 0 -0 -0 -0 -0 0 0 0 1
2 1 1 1 0 -0 -1 -2 -2 -2 -1 -1 -1 -1 -2 -2 -2 -1 -0 -1 -1 -1 -1 -0 0 1 0 -0 -1 -1 -0 0 -0 -0 -0 -1 -1 -1 -1 -1 -1 -1 -1 -1 -1 -2 -2 -2 -2 -2 -2 -2 -1 -0 -0 -1 -2 -2 -1 -1 -1 -1 -1 -1 -0 -0 -0 -0 -0 -0 -0 -0 -0 -0 -0 0 0 0 1 1 1 1 1 1 1 1 1 2 2 1 1 1 0 0 0 0 -0 -0 -0 -0 0 0 0
0 1 0 -0 -1 -1 -2 -3 -4 -3 -2 -2 -2 -2 -2 -2 0 1 -0 -0 -0 -0 -0 0 1 2 1 0 -0 -1 -1 -0 -0 -0 -0 -0 -1 -1 -1 -1 -1 -1 -1 -1 -1 -1 -2 -2 -2 -2 -2 -1 -1 -0 0 -1 -2 -2 -2 -1 -1 -1 -1 -1 -1 -1 -1 -1 -1 -0 -0 -0 -0 -0 -0 -0 -0 -0 0 0 1 1 1 1 1 1 1 2 2 2 1 1 0 0 0 0 0 0 0 0 0 0 0
-1 -1 -1 -1 -1 -1 -1 -2 -2 -2 -1 -1 -1 -1 -1 -1 1 1 -2 -0 1 1 1 1 1 0 -1 1 1 1 0 0 0 -0 -0 -1 -1 -2 -2 -2 -2 -1 -1 -1 -1 -1 -1 -1 -1 -1 -1 -1 -1 -0 1 -0 -1 -2 -2 -2 -2 -2 -1 -1 -1 -1 -1 -1 -1 -1 -1 -0 -0 -0 -0 -0 -1 -1 -1 -1 -0 0 1 1 1 1 1 1 1 1 1 1 0 0 0 1 1 1 1 0 0 0 0
0 -0 -0 -0 -0 0 1 0 0 0 0 0 -0 -0 -0 -0 -0 -0 -1 -2 -2 -1 -1 -0 -0 -0 -2 -2 -1 0 1 0 1 1 -0 -1 -2 -2 -2 -2 -2 -1 -1 -1 -1 -1 -1 -1 -1 -1 -0 -0 -0 0 1 1 -0 -2 -2 -2 -2 -2 -2 -1 -1 -1 -1 -1 -1 -1 -1 -1 -0 -0 0 -0 -0 -1 -1 -1 -1 -1 -0 -0 0 0 1 1 1 1 1 1 1 1 1 1 1 1 1 1 1 1 1
3 2 2 1 -0 0 2 2 1 1 0 -0 -0 -0 -0 -0 0 0 -1 -3 -3 -2 -1 -1 -1 -1 -1 -2 -2 -1 -0 -0 0 -0 -1 1 1 -1 -1 -1 -2 -2 -3 -1 -0 0 -0 -1 -1 -0 -0 -0 0 0 1 2 1 -0 -2 -2 -2 -2 -2 -2 -1 -1 -1 -1 -1 -1 -1 -1 -1 -1 -0 0 0 -0 -0 -1 -1 -1 -1 -1 -0 0 0 -0 0 0 1 1 1 1 1 1 1 1 1 1 1 1 1
3 2 2 3 2 0 1 0 0 0 0 -0 -0 -0 0 0 0 0 -0 -1 -1 -2 -4 -3 -2 -1 -1 -2 -2 -2 -2 -1 -0 -0 0 4 2 -1 -2 -2 -2 -2 -2 -2 -1 -0 -0 -1 -1 -0 -0 -0 0 0 0 1 2 1 -1 -1 -1 -2 -2 -2 -2 -1 -1 -0 -0 -0 -0 -0 -1 -1 -1 -0 -0 0 0 0 -0 -1 -1 -1 -1 -0 -0 -0 -0 0 0 1 1 1 1 1 1 1 1 1 1 1 1
2 2 2 5 5 2 0 -0 -0 0 1 1 -0 -0 0 0 1 0 -1 -1 -2 -3 -4 -3 -2 -1 -1 -2 -3 -3 -2 -1 -0 0 0 1 1 0 -1 -1 -1 -0 -0 -2 -2 -1 0 -1 -1 -1 -1 -0 -0 0 0 1 2 2 1 -0 -1 -1 -1 -2 -2 -2 -1 -1 -0 0 -0 -0 -0 -1 -1 -1 -1 -0 0 0 0 0 -0 -1 -1 -2 -1 -1 -0 -0 0 0 0 0 0 0 1 1 1 1 1 1 2
4 5 7 13 10 3 -2 -0 0 1 2 2 1 0 -0 0 0 0 -1 -1 -2 -3 -3 -2 -1 -1 -0 -2 -3 -3 -2 -1 0 1 1 0 0 0 1 -1 -0 1 1 -2 -3 -1 2 -0 -1 -1 -0 -0 -0 -0 0 0 1 2 2 1 -0 -1 -1 -1 -1 -2 -1 -1 -1 -0 -0 -0 -0 -1 -1 -1 -1 -1 -1 -0 0 1 1 0 -0 -1 -2 -2 -2 -1 -1 -0 -0 -0 -0 -0 -0 0 -0 0 1 1 2
3 5 6 14 10 1 -3 0 1 1 1 2 2 1 0 -0 -0 -0 -0 -1 -1 -1 -1 -1 -0 0 0 -1 -2 -3 -2 -1 -0 0 0 0 -0 -0 -0 -1 -1 -1 -0 -3 -3 -1 3 1 -2 -4 -2 0 0 -0 -0 -0 -0 1 2 2 1 -0 -1 -1 -1 -1 -1 -1 -1 -1 -0 -0 -0 -1 -1 -1 -1 -2 -2 -1 -1 -0 0 1 1 1 0 -0 -2 -2 -2 -2 -1 -1 -1 -0 -0 -0 -1 -0 -0 0 1
2 3 3 3 0 -3 -3 0 1 1 1 1 1 2 1 1 0 -0 -0 -0 -0 -0 -1 -0 -0 -0 -1 -1 -1 -0 -0 -1 -1 -1 -1 -1 -1 -1 -1 -0 -1 -2 -3 -4 -2 0 4 3 -1 -4 -5 -1 1 1 -0 -0 -1 -1 0 2 2 1 -0 -0 -0 -0 -0 -0 -1 -1 -1 -1 -1 -1 -1 -1 -1 -2 -2 -2 -2 -1 -1 -0 0 1 2 1 0 -0 0 -2 -2 -2 -2 -1 -1 -1 -1 -1 -1 -1 -1
3 2 2 0 -1 -2 -1 -0 0 -0 -0 -0 0 1 2 2 1 0 -0 -0 0 0 0 0 -0 -1 -2 -1 0 1 0 -1 -1 -1 -1 -1 -1 -1 -1 -0 0 1 -0 -0 1 3 4 4 1 -3 -5 -3 -1 1 0 -0 -0 -1 -2 -0 1 2 1 0 -0 0 0 0 0 -0 -1 -1 -1 -1 -1 -1 -1 -1 -1 -2 -2 -2 -1 -1 -1 -1 -0 1 2 3 3 0 -1 -2 -2 -1 -1 -1 -1 -1 -1 -1 -1
2 1 0 -0 -1 -1 -1 -0 0 0 -0 -1 -0 0 2 3 2 1 0 0 0 0 0 0 -0 -1 -2 -1 0 1 1 -0 -1 -1 -1 -1 -1 -2 -2 -2 -1 1 2 3 3 3 5 4 2 -1 -3 -2 -1 0 -0 -0 -0 -1 -2 -2 -1 1 2 1 0 -0 0 0 0 0 -0 -1 -1 -1 -1 -1 -1 -1 -1 -1 -1 -1 -1 -1 -1 -1 -1 -1 -1 0 1 1 1 -0 -0 -0 -0 -0 -0 -0 -0 -0 -1
0 -1 -1 -1 -2 -2 -2 -1 -0 1 1 0 -0 0 1 2 2 2 1 1 0 0 0 0 -0 -1 -2 -1 -0 1 1 1 -0 -1 -1 -1 -1 -2 -1 -1 -1 -2 -1 -0 0 1 3 2 1 -0 -1 -1 -0 -0 -0 -0 -0 -1 -1 -2 -2 -1 1 2 2 1 -0 -0 -0 -0 -0 -0 -0 -0 -0 -1 -1 -1 -1 -1 -1 -1 -0 -0 -1 -1 -1 -2 -2 -1 -1 0 1 1 1 1 0 0 0 0 1 1 1
-1 -1 -1 -1 -2 -2 -2 -1 -1 -0 1 1 1 0 0 1 1 2 2 1 1 0 -0 -0 -1 -1 -2 -2 -1 -0 0 0 -0 -0 -1 -1 -1 -1 -1 -1 -1 -2 -3 -3 -2 -2 -0 1 1 1 1 0 -0 -1 -0 -1 -1 -2 -2 -2 -2 -2 -0 2 3 3 2 0 -0 -1 -1 -1 -1 -0 -0 -0 -1 -1 -1 -1 -1 -1 -1 -1 -1 -1 -1 -1 -1 -2 -2 -1 -0 0 0 0 0 0 1 0 1 1 1
-1 -1 -1 -1 -1 -1 -1 -1 -1 -1 -0 0 1 0 -0 0 1 1 1 1 1 1 -0 -0 -1 -1 -2 -2 -2 -1 -1 -1 -1 -1 -1 -1 -1 -1 -1 -1 -1 -1 -2 -2 -2 -2 -1 0 1 1 1 1 0 -0 0 -1 -1 -2 -2 -1 -1 -1 -2 -0 1 2 3 2 1 0 -1 -1 -1 -0 -0 -0 -0 -0 -1 -1 -1 -1 -1 -1 -1 -1 -1 -0 -1 -1 -1 -2 -1 -1 -1 -1 -0 0 1 1 1 1 0
-1 -1 -1 -1 -1 0 1 -0 -1 -2 -2 -1 -0 0 -0 0 0 1 1 1 1 1 0 -0 -0 -1 -2 -2 -2 -2 -2 -2 -2 -2 -2 -2 -1 -1 -1 -1 -1 -2 -2 -2 -2 -2 -2 -1 -0 -0 0 1 1 1 1 0 -0 -1 -1 -0 -0 -0 -1 -1 -0 0 1 2 2 2 2 1 0 -0 0 0 -0 -0 -1 -1 -1 -1 -1 -1 -1 -1 -1 -1 -1 -1 -1 -1 -1 -1 -2 -1 -1 -0 0 1 1 1 0
-0 -1 -1 -1 -0 1 2 1 -0 -2 -2 -2 -1 -0 0 0 0 1 1 1 1 1 1 1 0 -0 -1 -1 -2 -2 -2 -3 -3 -3 -3 -2 -2 -2 -2 -2 -2 -2 -2 -1 -1 -2 -2 -2 -2 -2 -2 -1 0 1 1 1 1 0 0 1 1 1 -0 0 0 -0 -1 -0 0 1 3 3 2 2 1 1 1 0 -0 -1 -1 -2 -1 -1 -1 -1 -2 -1 -1 -1 -0 -1 -1 -1 -1 -1 -1 -1 -1 -0 0 1 1
-0 -1 -2 -1 -0 1 2 1 0 -1 -1 -2 -1 -1 -1 -0 -0 1 1 0 1 1 1 1 1 0 -0 -0 -1 -1 -2 -2 -2 -2 -2 -3 -2 -2 -2 -2 -2 -2 -2 -1 -1 -1 -1 -2 -2 -3 -3 -2 -1 -0 0 1 1 1 1 1 1 1 1 1 1 0 -0 -0 -1 -1 0 2 2 3 3 3 2 2 1 -0 -1 -2 -2 -2 -1 -1 -1 -1 -1 -1 -1 -1 -1 -0 -0 -0 -1 -1 -0 0 1 1 2
-0 -1 -2 -1 0 2 2 1 0 -0 -0 -1 -1 -2 -1 -1 -0 0 0 -0 -0 0 0 1 1 1 0 0 -0 -1 -1 -1 -1 -1 -1 -2 -2 -2 -2 -2 -2 -2 -1 -1 -1 -1 -1 -1 -2 -2 -2 -1 -1 -1 -1 1 1 2 1 1 1 0 0 0 1 1 1 0 -0 -0 -1 -0 1 2 3 3 3 3 3 1 0 -1 -2 -2 -2 -1 -1 -1 -1 -1 -1 -0 -0 -0 -0 -0 -0 -0 1 2 3 3 3
-0 -1 -2 -1 1 2 1 0 -0 -0 -1 -1 -1 -1 -1 -0 0 -0 -1 -1 -1 -0 -0 0 1 1 -0 -0 -0 -0 -0 -0 -0 0 -0 -1 -2 -2 -2 -2 -1 -1 -1 -1 -1 -1 -1 -2 -2 -2 -1 -1 -1 -1 -1 0 1 2 1 1 -0 -1 -1 -0 -0 -0 -1 -0 -0 0 -0 -0 -0 0 1 2 2 2 3 2 1 0 -1 -1 -1 -1 -1 -0 -0 -0 -0 -0 -0 -0 -0 -0 -0 -0 0 1 2 2 2
-1 -1 -1 -0 1 1 1 0 -0 -1 -1 -1 -1 -1 -1 -0 -0 -0 -1 -1 -1 -1 -1 -1 -0 -0 0 -0 -0 -0 -0 0 0 0 -0 -1 -1 -1 -1 -1 -1 -1 -1 -2 -1 -1 -1 -2 -2 -2 -1 -1 -1 -1 -1 -0 0 1 1 1 -0 -1 -1 -1 -1 -2 -2 -2 -1 -0 0 1 0 -0 -1 -0 1 1 2 2 2 1 1 -0 -1 -1 -1 -0 -0 0 0 0 0 -0 -0 -0 -1 -1 -1 -1 -1 -1 -0
-1 -1 -1 -0 0 1 1 0 -0 -1 -2 -2 -1 -1 -1 -1 -1 -1 -1 -1 -1 -1 -1 -1 -1 -0 0 -0 -0 -0 -0 -0 -0 -0 -1 -1 -1 -0 -0 -0 -0 -0 -1 -1 -1 -1 -1 -2 -2 -2 -2 -2 -1 -1 -0 -0 -0 1 2 1 1 0 -0 -1 -1 -2 -2 -2 -2 -1 -1 0 1 1 -0 -1 -1 -0 0 1 2 2 2 2 1 1 0 -0 -0 0 0 -0 -0 -0 -0 -0 -0 -1 -1 -2 -2 -2 -2
-2 -2 -2 -0 1 1 0 0 0 -0 -1 -2 -2 -2 -2 -2 -1 -1 -1 -0 -0 -1 -2 -2 -1 -1 -0 -0 -0 -0 -0 -1 -1 -1 -1 -1 -1 -0 1 0 0 0 0 -0 -1 -1 -1 -1 -2 -2 -1 -1 -1 -0 0 -0 -0 0 1 1 1 1 1 1 -0 -1 -2 -2 -1 -1 -1 -1 -0 0 1 -0 -1 -2 -2 -1 -0 1 2 3 3 3 3 4 3 2 0 -1 -1 -1 -0 -1 -2 -3 -4 -3 -3 -2 -2
-2 -2 -1 1 1 1 -0 -0 -0 -0 -1 -2 -2 -2 -3 -2 -1 -1 0 1 0 -1 -2 -2 -1 -1 -1 -1 -1 -0 -0 -1 -2 -2 -1 -1 -1 -0 0 0 0 -0 -0 -0 -0 -1 -2 -1 -1 -1 -0 -0 0 0 0 -0 -0 -1 -1 -0 -0 0 1 2 1 -0 -1 -1 -1 -1 -0 -0 -0 0 1 0 0 -0 -1 -1 -2 -2 -1 0 1 1 4 7 6 3 1 -1 -2 -2 -2 -4 -5 -6 -5 -3 -2 -1 0
-1 -0 0 1 1 1 -0 -0 -0 -0 -1 -1 -1 -2 -2 -1 -1 -1 0 0 -0 -1 -3 -3 -2 -1 -1 -1 -1 -0 -0 -1 -2 -1 -1 -1 -1 -1 -1 -1 -1 -0 -0 -0 -0 -1 -2 -2 -1 -1 0 0 0 0 -0 -1 -1 -2 -2 -1 -1 -1 -0 0 0 -0 0 2 1 0 0 0 0 0 1 1 1 1 1 0 -1 -2 -2 -1 -0 1 2 6 7 4 1 -2 -4 -5 -6 -7 -6 -5 -3 -2 -1 -1 0
-0 -0 -0 0 0 0 -0 -0 -1 -1 -1 -1 -1 -1 -1 -1 -1 -1 -1 -1 -2 -3 -3 -3 -3 -2 -0 -1 -1 -1 -1 -1 -0 1 -0 -2 -1 -1 -2 -3 -2 -1 -0 0 0 0 -0 -1 -1 -0 1 1 0 -0 -1 -2 -2 -1 -2 -1 -1 -2 -2 -1 -1 -1 -0 1 1 1 1 1 1 1 1 1 1 1 1 0 -0 -0 -1 0 1 2 2 2 1 -2 -7 -10 -10 -8 -6 -4 -2 -1 -2 -1 -1 -1 -1
-1 -1 -1 -0 0 -0 -1 -1 -1 -1 -1 -1 -1 -2 -2 -1 -1 -1 -2 -2 -3 -3 -2 -2 -3 -2 -0 0 -0 -2 -3 -2 -1 0 1 -1 -1 -1 -1 -2 -2 -2 -1 -1 -1 -0 1 2 3 3 3 1 -0 -1 -2 -1 -1 -1 -1 -1 -1 -1 -2 -1 -1 -1 -0 -0 1 1 1 1 0 0 1 1 1 1 -0 -1 -1 -0 0 1 1 1 -1 -4 -8 -13 -15 -10 -5 -1 1 0 -0 -2 -3 -0 1 1 -1
-1 -2 -1 -0 -1 -1 -2 -1 -1 -0 1 0 -1 -3 -3 -2 -1 -2 -3 -3 -3 -3 -2 -2 -1 -1 -1 1 0 -1 -4 -3 -2 -1 1 -0 -1 -1 -1 0 -1 -2 -1 -1 -2 -3 -0 3 4 4 4 1 -1 -2 -2 -0 0 1 1 0 -0 -1 -1 -1 -1 -0 0 0 1 1 1 0 -0 -0 -0 0 -0 -0 -1 -1 -1 0 1 1 -2 -7 -14 -19 -19 -15 -8 -0 3 4 3 -0 -2 -3 -4 -2 -0 1 1
-1 -1 -1 -1 -1 -2 -2 -1 1 2 3 1 -1 -3 -4 -2 -2 -1 -2 -2 -1 -0 1 0 1 0 -1 -1 -0 -0 -2 -3 -3 -2 -1 -1 -0 -0 -2 -1 -0 -0 -1 -0 -1 -2 -2 1 1 0 1 1 -0 -1 -1 1 2 2 2 1 -0 -0 -0 -0 0 1 2 2 2 2 2 2 1 1 1 1 1 0 -0 -0 -0 1 3 -0 -9 -17 -20 -15 -9 -3 1 3 5 6 5 2 -1 -2 -3 -3 -2 -0 2
-1 -1 -1 -1 -1 -1 -1 0 2 2 2 0 -2 -3 -4 -2 -1 -0 -0 1 2 4 3 1 0 -1 -1 -3 -2 -0 0 -2 -2 -2 -3 -2 -1 0 -2 -3 -1 0 -0 -0 1 0 -1 -3 -2 -1 -2 -2 -1 -0 -1 0 2 2 1 0 0 1 1 1 1 1 1 3 4 5 5 4 4 3 2 1 0 0 0 1 1 1 0 -12 -18 -18 -9 -4 -2 -2 -1 1 4 6 6 5 3 1 -0 -0 0 1 2
-0 -1 -1 -0 -0 -0 -0 1 1 1 1 -1 -2 -3 -3 -2 -1 -0 -0 1 2 2 0 -1 -2 -3 -2 -2 -2 -1 1 -1 -2 -3 -2 -3 -2 -0 1 -0 -1 -2 -2 -2 -1 -0 -3 -1 2 2 -4 -3 -0 1 -4 -3 -1 0 -2 -1 1 3 2 2 2 1 -0 1 3 4 5 4 4 3 3 4 3 1 2 1 -0 -3 -10 -18 -16 -10 -3 -4 -3 -2 -1 1 2 4 4 5 4 3 2 3 3 2 -0
-0 -0 -0 -0 0 0 0 0 0 0 -1 -1 -2 -2 -2 -1 -0 -0 0 1 1 -0 -1 -2 -2 -2 -2 0 0 0 0 -1 -4 -5 -2 -2 -1 -0 2 1 -0 -2 -2 -2 -2 -1 -3 2 5 3 -7 -5 -0 1 -3 -3 -2 -1 -3 -2 -1 0 -0 1 1 1 0 0 1 2 3 5 6 5 2 5 2 -5 -11 -7 -4 -4 -9 -9 -6 -4 -2 -2 -2 -1 1 1 2 2 2 3 3 3 4 4 4 2 -1
-0 -0 -0 -0 0 1 1 0 0 -0 -1 -1 -1 -1 -1 -1 -0 0 0 1 0 -0 -1 -1 -1 -1 -0 2 2 2 -0 -2 -5 -6 -4 -1 0 1 2 1 -1 -2 -1 -2 -1 -0 -1 0 2 2 -2 -4 -3 -1 -0 -1 -1 -1 -1 -2 -1 -0 -0 1 1 1 0 1 1 2 3 3 1 -2 -6 -10 -12 -11 -6 -3 -1 -1 -1 -2 -2 -3 -2 -2 -1 0 1 1 1 1 1 2 2 2 3 4 3 1 -1
-0 -0 -0 -0 0 1 1 0 -0 -0 -1 -1 -1 -1 -1 -0 -0 0 1 1 1 0 -0 -1 -1 -0 1 3 3 2 -0 -3 -5 -6 -4 -1 0 1 1 -0 -1 -1 -1 -1 -0 -0 0 -0 -0 -0 2 0 -2 -3 -1 0 -0 -1 -1 -0 -0 -0 1 2 2 2 2 2 2 3 3 -1 -4 -9 -16 -19 -14 -6 1 1 0 -0 -1 -1 -2 -2 -2 -1 -1 0 1 1 1 1 2 2 2 2 3 3 3 2 -1
-0 -0 -0 -0 0 1 0 0 -0 -1 -1 -1 -1 -1 -0 -0 -0 0 1 1 1 0 -1 -1 -1 -0 2 4 3 2 -1 -3 -4 -4 -2 -2 -2 -3 -1 -0 -0 -0 -0 -0 -0 -0 1 0 0 -0 0 0 0 0 1 1 0 0 1 1 0 1 2 4 4 4 5 5 4 -0 -5 -8 -10 -12 -16 -13 -7 -1 2 1 1 0 -0 -1 -2 -2 -2 -1 -0 1 1 2 2 2 2 3 3 3 3 4 4 3 1
-0 -0 -0 -0 0 0 -0 -1 -1 -1 -1 -1 -1 -1 -0 -0 -0 0 1 1 1 -0 -1 -1 -1 -0 2 3 2 1 -1 -2 -3 -4 -2 -1 -3 -4 -2 1 1 -0 0 0 0 0 1 0 0 -0 -1 -1 -0 1 3 4 4 3 3 2 1 2 5 7 7 7 7 4 -3 -9 -12 -8 -5 -4 -6 -6 -3 -0 1 2 2 1 1 0 -1 -1 -0 1 1 2 3 3 3 2 2 3 3 3 2 3 2 2 1
Height
3158 3158 3159 3160 3160 3161 3162 3162 3162 3163 3163 3164 3164 3164 3164 3165 3165 3165 3166 3166 3166 3167 3167 3167 3168 3168 3168 3168 3168 3169 3169 3169 3169 3170 3170 3170 3170 3170 3170 3170 3169 3169 3169 3169 3169 3169 3169 3169 3169 3169 3169 3169 3170 3170 3170 3170 3171 3171 3172 3172 3172 3173 3173 3174 3174 3175 3176 3176 3177 3178 3178 3179 3179 3180 3180 3181 3181 3182 3182 3183 3183 3183 3183 3183 3183 3184 3184 3184 3184 3184 3185 3185 3185 3185 3185 3185 3185 3184 3184 3184 3184 3184 3184
3157 3158 3159 3159 3160 3161 3161 3162 3162 3162 3163 3163 3163 3164 3164 3164 3165 3165 3165 3166 3166 3166 3167 3167 3168 3168 3168 3168 3168 3169 3169 3169 3169 3170 3170 3170 3170 3170 3170 3170 3170 3170 3169 3169 3169 3169 3169 3169 3169 3170 3170 3170 3170 3170 3170 3171 3171 3172 3172 3172 3173 3173 3174 3174 3175 3175 3176 3177 3177 3178 3178 3179 3179 3180 3180 3181 3181 3182 3183 3183 3183 3183 3183 3183 3183 3184 3184 3184 3184 3184 3185 3185 3185 3185 3185 3185 3185 3184 3184 3184 3184 3184 3184
3157 3158 3158 3159 3159 3160 3161 3161 3162 3162 3163 3163 3163 3163 3164 3164 3164 3165 3165 3165 3166 3166 3166 3167 3167 3168 3168 3168 3168 3168 3169 3169 3169 3170 3170 3170 3170 3170 3170 3170 3170 3170 3170 3170 3169 3169 3170 3170 3170 3170 3170 3170 3170 3170 3170 3171 3171 3172 3173 3173 3173 3173 3174 3174 3175 3176 3176 3177 3177 3178 3178 3179 3179 3180 3180 3181 3181 3182 3182 3182 3183 3183 3183 3183 3183 3184 3184 3184 3184 3184 3184 3185 3185 3185 3185 3185 3185 3184 3184 3184 3184 3184 3184
3156 3157 3158 3158 3159 3159 3160 3161 3161 3162 3162 3163 3163 3163 3163 3164 3164 3165 3165 3165 3166 3166 3166 3167 3167 3167 3168 3168 3168 3168 3169 3169 3169 3170 3170 3170 3170 3170 3170 3170 3170 3170 3170 3170 3170 3170 3170 3170 3170 3170 3171 3171 3171 3171 3171 3171 3172 3172 3173 3173 3173 3173 3174 3175 3175 3176 3176 3177 3177 3178 3178 3179 3179 3180 3180 3181 3181 3182 3182 3183 3183 3183 3183 3183 3183 3184 3184 3184 3184 3184 3184 3184 3184 3185 3185 3184 3185 3185 3184 3184 3184 3184 3184
3156 3156 3157 3158 3158 3159 3160 3160 3161 3161 3162 3162 3163 3163 3163 3164 3164 3165 3165 3165 3165 3166 3166 3166 3167 3167 3168 3168 3168 3168 3168 3169 3169 3169 3170 3170 3170 3170 3171 3171 3170 3170 3170 3170 3170 3170 3170 3170 3171 3171 3171 3171 3171 3171 3171 3172 3172 3172 3173 3173 3173 3173 3174 3175 3175 3176 3177 3177 3178 3178 3178 3179 3179 3180 3180 3181 3181 3182 3182 3183 3183 3183 3183 3183 3183 3184 3184 3184 3184 3184 3184 3184 3184 3184 3184 3184 3184 3184 3184 3184 3184 3184 3184
3155 3156 3156 3157 3158 3158 3159 3160 3160 3161 3161 3162 3162 3163 3163 3163 3164 3164 3165 3165 3165 3165 3166 3166 3166 3167 3167 3168 3168 3168 3168 3169 3169 3169 3170 3170 3170 3171 3171 3171 3171 3171 3171 3171 3171 3171 3171 3171 3171 3171 3171 3171 3171 3171 3171 3172 3172 3172 3172 3173 3173 3174 3174 3175 3175 3176 3177 3177 3178 3178 3178 3179 3179 3180 3180 3181 3181 3182 3182 3182 3183 3183 3183 3183 3183 3183 3184 3184 3184 3184 3184 3184 3184 3184 3184 3184 3184 3184 3184 3184 3184 3184 3184
3154 3155 3156 3156 3157 3158 3158 3159 3159 3160 3160 3162 3162 3163 3163 3163 3163 3164 3164 3165 3165 3165 3166 3166 3166 3167 3167 3168 3168 3168 3168 3169 3169 3169 3170 3170 3170 3171 3171 3171 3171 3171 3171 3171 3171 3171 3171 3171 3171 3171 3171 3171 3171 3172 3172 3172 3172 3172 3173 3173 3173 3174 3174 3175 3175 3176 3177 3177 3178 3178 3178 3179 3179 3180 3180 3181 3181 3181 3182 3182 3182 3183 3183 3183 3183 3183 3183 3184 3184 3184 3184 3184 3184 3184 3184 3184 3184 3184 3184 3184 3184 3184 3184
3154 3154 3155 3156 3157 3157 3158 3159 3159 3159 3160 3161 3161 3162 3162 3163 3163 3163 3164 3164 3165 3165 3165 3166 3166 3167 3167 3167 3168 3168 3168 3168 3169 3169 3169 3170 3170 3171 3171 3171 3171 3171 3171 3171 3171 3171 3171 3172 3172 3172 3171 3171 3172 3172 3172 3172 3172 3173 3173 3173 3174 3174 3175 3175 3176 3176 3177 3177 3178 3178 3178 3179 3179 3180 3180 3180 3181 3181 3182 3182 3182 3182 3183 3183 3183 3183 3183 3183 3183 3184 3184 3184 3184 3184 3184 3184 3184 3184 3184 3184 3184 3184 3184
3153 3154 3154 3155 3156 3157 3158 3158 3159 3159 3159 3160 3160 3161 3162 3162 3163 3163 3163 3164 3164 3165 3165 3165 3166 3166 3167 3167 3168 3168 3168 3168 3169 3169 3169 3170 3170 3171 3171 3171 3171 3171 3171 3172 3172 3172 3172 3172 3172 3172 3172 3172 3172 3172 3172 3172 3173 3173 3173 3173 3174 3174 3175 3175 3176 3176 3177 3177 3178 3178 3178 3179 3179 3180 3180 3180 3181 3181 3181 3182 3182 3182 3182 3183 3183 3183 3183 3183 3183 3183 3183 3184 3184 3184 3184 3184 3184 3184 3184 3184 3184 3184 3183
3153 3153 3154 3155 3155 3156 3157 3158 3158 3159 3159 3160 3160 3160 3161 3161 3162 3163 3163 3163 3164 3164 3165 3165 3166 3166 3167 3167 3167 3168 3168 3168 3169 3169 3169 3170 3170 3170 3171 3171 3171 3171 3172 3172 3172 3172 3172 3172 3172 3172 3172 3172 3172 3172 3172 3173 3173 3173 3173 3173 3174 3174 3175 3175 3176 3176 3177 3177 3177 3178 3178 3178 3179 3179 3180 3180 3180 3181 3181 3181 3182 3182 3182 3182 3182 3183 3183 3183 3183 3183 3183 3183 3184 3184 3184 3184 3184 3184 3183 3183 3183 3183 3183
3152 3153 3153 3154 3155 3156 3156 3157 3158 3158 3159 3159 3160 3160 3160 3161 3162 3162 3163 3163 3163 3164 3164 3165 3165 3166 3166 3167 3167 3168 3168 3168 3169 3169 3169 3170 3170 3170 3171 3171 3171 3172 3172 3172 3172 3172 3172 3172 3173 3173 3173 3173 3173 3173 3173 3173 3173 3173 3173 3173 3174 3174 3175 3175 3175 3176 3176 3177 3177 3178 3178 3178 3179 3179 3180 3180 3180 3181 3181 3181 3182 3182 3182 3182 3182 3182 3182 3183 3183 3183 3183 3183 3183 3183 3183 3183 3183 3183 3183 3183 3183 3183 3183
3151 3152 3153 3153 3154 3155 3156 3157 3158 3158 3158 3159 3159 3160 3160 3161 3161 3162 3162 3163 3163 3164 3164 3165 3165 3166 3166 3167 3167 3168 3168 3168 3169 3169 3169 3170 3170 3170 3171 3171 3171 3172 3172 3172 3172 3172 3173 3173 3173 3173 3173 3173 3173 3173 3173 3173 3173 3173 3173 3173 3174 3174 3175 3175 3175 3176 3176 3177 3177 3178 3178 3178 3179 3179 3180 3180 3180 3180 3181 3181 3181 3181 3181 3182 3182 3182 3182 3182 3182 3183 3183 3183 3183 3183 3183 3183 3183 3183 3183 3183 3183 3183 3183
3150 3151 3152 3153 3153 3154 3155 3156 3157 3158 3158 3159 3159 3160 3160 3161 3161 3162 3162 3163 3163 3163 3164 3164 3165 3165 3166 3166 3167 3167 3168 3168 3168 3169 3169 3170 3170 3170 3171 3171 3171 3172 3172 3172 3172 3173 3173 3173 3173 3173 3173 3173 3173 3173 3173 3173 3173 3173 3173 3174 3174 3174 3175 3175 3175 3176 3176 3177 3177 3178 3178 3178 3179 3179 3179 3180 3180 3180 3180 3181 3181 3181 3181 3181 3181 3182 3182 3182 3182 3182 3182 3183 3183 3183 3183 3183 3183 3183 3183 3183 3183 3183 3183
3149 3150 3151 3152 3153 3154 3155 3156 3157 3157 3158 3158 3159 3159 3160 3160 3161 3161 3162 3162 3163 3163 3164 3164 3165 3165 3166 3166 3167 3167 3168 3168 3168 3169 3169 3170 3170 3170 3171 3171 3171 3172 3172 3172 3172 3173 3173 3173 3173 3173 3173 3173 3173 3173 3173 3173 3173 3173 3174 3174 3174 3174 3175 3175 3175 3176 3176 3177 3177 3178 3178 3178 3179 3179 3179 3180 3180 3180 3180 3180 3181 3181 3181 3181 3181 3181 3182 3182 3182 3182 3182 3182 3182 3183 3183 3183 3183 3183 3183 3183 3183 3183 3183
3149 3149 3150 3151 3152 3153 3154 3155 3156 3157 3157 3158 3159 3159 3160 3160 3161 3161 3162 3162 3163 3163 3164 3164 3165 3165 3165 3166 3166 3167 3168 3168 3168 3169 3169 3170 3170 3170 3171 3171 3171 3172 3172 3172 3173 3173 3173 3173 3173 3173 3173 3174 3173 3173 3173 3173 3174 3174 3174 3174 3174 3175 3175 3175 3175 3176 3176 3177 3177 3177 3178 3178 3178 3179 3179 3179 3180 3180 3180 3180 3180 3181 3181 3181 3181 3181 3182 3182 3182 3182 3182 3182 3182 3182 3182 3182 3182 3182 3183 3183 3182 3182 3182
3148 3149 3150 3151 3152 3153 3153 3154 3155 3156 3157 3158 3158 3159 3159 3160 3161 3161 3161 3162 3163 3163 3163 3164 3164 3165 3165 3166 3166 3167 3167 3168 3168 3169 3169 3170 3170 3170 3171 3171 3171 3172 3172 3172 3173 3173 3173 3173 3173 3173 3174 3174 3174 3174 3174 3174 3174 3174 3174 3174 3174 3175 3175 3175 3176 3176 3176 3177 3177 3177 3178 3178 3178 3179 3179 3179 3180 3180 3180 3180 3180 3181 3181 3181 3181 3181 3181 3181 3182 3182 3182 3182 3182 3182 3182 3182 3182 3182 3182 3182 3182 3182 3182
3147 3148 3149 3150 3151 3152 3153 3154 3154 3155 3156 3157 3158 3158 3159 3160 3160 3161 3161 3162 3162 3163 3163 3164 3164 3165 3165 3166 3166 3167 3167 3168 3168 3169 3169 3170 3170 3170 3171 3171 3171 3172 3172 3172 3173 3173 3173 3173 3173 3174 3174 3174 3174 3174 3174 3174 3174 3174 3174 3175 3175 3175 3175 3175 3176 3176 3176 3177 3177 3177 3178 3178 3178 3178 3179 3179 3179 3180 3180 3180 3180 3180 3181 3181 3181 3181 3181 3181 3181 3181 3182 3182 3182 3182 3182 3182 3182 3182 3182 3182 3182 3182 3182
3147 3148 3148 3149 3150 3151 3152 3153 3154 3155 3155 3156 3157 3158 3158 3159 3159 3160 3161 3161 3162 3163 3163 3164 3164 3165 3165 3166 3166 3167 3167 3168 3168 3168 3169 3169 3170 3170 3171 3171 3171 3172 3172 3172 3173 3173 3173 3173 3173 3174 3174 3174 3174 3174 3174 3174 3174 3174 3175 3175 3175 3175 3175 3176 3176 3176 3176 3177 3177 3177 3178 3178 3178 3178 3179 3179 3179 3179 3180 3180 3180 3180 3180 3180 3180 3181 3181 3181 3181 3181 3181 3181 3181 3181 3181 3181 3181 3181 3181 3182 3182 3182 3182
3146 3147 3148 3149 3150 3151 3152 3153 3153 3154 3155 3156 3156 3157 3158 3158 3159 3160 3161 3161 3162 3162 3163 3164 3164 3165 3165 3166 3166 3167 3167 3167 3168 3168 3169 3169 3170 3170 3171 3171 3171 3172 3172 3172 3173 3173 3173 3173 3173 3174 3174 3174 3174 3174 3174 3175 3175 3175 3175 3175 3175 3175 3176 3176 3176 3176 3177 3177 3177 3177 3178 3178 3178 3178 3178 3179 3179 3179 3179 3180 3180 3180 3180 3180 3180 3180 3180 3181 3181 3181 3181 3181 3181 3181 3181 3181 3181 3181 3181 3181 3181 3181 3181
3145 3146 3147 3148 3149 3150 3151 3152 3153 3153 3154 3155 3156 3156 3157 3158 3159 3160 3161 3161 3162 3162 3163 3163 3164 3164 3165 3166 3166 3166 3167 3167 3168 3168 3168 3169 3169 3170 3170 3171 3171 3171 3172 3172 3173 3173 3173 3173 3173 3174 3174 3174 3174 3174 3175 3175 3175 3175 3175 3175 3175 3176 3176 3176 3176 3176 3177 3177 3177 3177 3178 3178 3178 3178 3178 3178 3179 3179 3179 3179 3179 3180 3180 3180 3180 3180 3180 3180 3180 3180 3180 3181 3181 3181 3181 3181 3181 3181 3181 3181 3181 3181 3181
3144 3145 3146 3147 3148 3149 3150 3151 3152 3153 3153 3154 3155 3156 3157 3157 3158 3158 3159 3160 3161 3162 3163 3163 3164 3164 3165 3165 3166 3166 3166 3167 3167 3168 3168 3168 3169 3169 3170 3170 3171 3171 3172 3172 3172 3173 3173 3173 3173 3174 3174 3174 3174 3174 3175 3175 3175 3175 3175 3175 3176 3176 3176 3176 3176 3176 3177 3177 3177 3177 3177 3178 3178 3178 3178 3178 3178 3179 3179 3179 3179 3179 3179 3179 3180 3180 3180 3180 3180 3180 3180 3180 3180 3180 3180 3180 3180 3180 3180 3180 3180 3180 3180
3143 3144 3145 3146 3148 3148 3149 3150 3151 3152 3153 3153 3154 3155 3156 3157 3158 3158 3159 3160 3161 3162 3162 3163 3163 3164 3164 3165 3165 3166 3166 3167 3167 3168 3168 3168 3169 3169 3170 3170 3171 3171 3171 3172 3172 3172 3173 3173 3173 3173 3174 3174 3174 3174 3174 3175 3175 3175 3175 3176 3176 3176 3176 3176 3176 3176 3177 3177 3177 3177 3177 3178 3177 3177 3178 3178 3178 3178 3178 3178 3179 3179 3179 3179 3179 3179 3179 3179 3179 3179 3179 3179 3179 3179 3179 3180 3180 3180 3180 3180 3180 3180 3180
3142 3143 3144 3145 3147 3148 3149 3150 3150 3151 3152 3153 3154 3155 3155 3156 3157 3158 3159 3160 3160 3161 3162 3162 3163 3163 3164 3164 3165 3165 3166 3166 3167 3167 3168 3168 3168 3169 3169 3170 3170 3171 3171 3171 3172 3172 3172 3173 3173 3173 3173 3174 3174 3174 3174 3175 3175 3175 3175 3175 3176 3176 3176 3176 3176 3176 3177 3177 3177 3177 3177 3177 3177 3177 3178 3178 3178 3178 3178 3178 3178 3178 3178 3178 3178 3178 3179 3179 3179 3179 3179 3179 3179 3179 3179 3179 3179 3179 3179 3179 3179 3179 3179
3141 3143 3143 3145 3146 3147 3148 3149 3150 3151 3152 3153 3153 3154 3155 3156 3157 3158 3158 3159 3160 3160 3161 3162 3162 3163 3163 3164 3164 3165 3166 3166 3167 3167 3167 3168 3168 3168 3169 3169 3170 3170 3171 3171 3171 3172 3172 3172 3173 3173 3173 3173 3174 3174 3174 3174 3175 3175 3175 3175 3175 3176 3176 3176 3176 3176 3176 3177 3177 3177 3177 3177 3177 3177 3177 3177 3178 3178 3178 3178 3178 3178 3178 3178 3178 3178 3178 3178 3178 3178 3178 3178 3178 3178 3178 3178 3178 3179 3179 3179 3179 3179 3179
3141 3142 3143 3144 3145 3146 3148 3149 3150 3150 3151 3152 3153 3154 3155 3156 3157 3157 3158 3158 3159 3160 3161 3161 3162 3162 3163 3163 3164 3164 3165 3166 3166 3167 3167 3167 3168 3168 3168 3169 3169 3170 3170 3171 3171 3171 3172 3172 3172 3173 3173 3173 3173 3174 3174 3174 3174 3175 3175 3175 3175 3175 3176 3176 3176 3176 3176 3176 3176 3177 3177 3177 3177 3177 3177 3177 3177 3177 3177 3177 3177 3177 3177 3177 3178 3178 3178 3178 3178 3178 3178 3178 3178 3178 3178 3178 3178 3178 3178 3178 3178 3178 3178
3140 3141 3143 3143 3145 3146 3147 3148 3149 3150 3151 3152 3153 3154 3155 3156 3156 3157 3157 3158 3158 3159 3160 3161 3161 3162 3162 3163 3163 3164 3164 3165 3166 3167 3167 3167 3167 3168 3168 3168 3169 3169 3170 3170 3171 3171 3171 3171 3172 3172 3172 3173 3173 3173 3174 3174 3174 3174 3174 3175 3175 3175 3175 3175 3176 3176 3176 3176 3176 3176 3176 3176 3176 3176 3176 3176 3176 3177 3177 3177 3177 3177 3177 3177 3177 3177 3177 3177 3177 3177 3177 3177 3177 3177 3177 3177 3177 3177 3177 3177 3178 3178 3178
3140 3141 3142 3143 3144 3146 3147 3148 3149 3150 3151 3152 3153 3153 3154 3155 3156 3157 3157 3157 3158 3158 3159 3160 3160 3161 3161 3162 3163 3163 3164 3164 3165 3166 3167 3167 3167 3167 3168 3168 3168 3169 3169 3170 3170 3170 3171 3171 3171 3172 3172 3172 3173 3173 3173 3173 3173 3173 3174 3174 3174 3175 3175 3175 3175 3175 3175 3175 3175 3176 3176 3176 3176 3176 3176 3176 3176 3176 3176 3176 3176 3176 3176 3176 3176 3176 3177 3177 3177 3177 3177 3176 3176 3176 3176 3176 3176 3176 3177 3177 3177 3177 3177
3140 3141 3142 3143 3144 3145 3147 3148 3148 3150 3150 3151 3152 3153 3153 3154 3155 3156 3157 3157 3157 3158 3159 3159 3160 3160 3161 3161 3162 3162 3163 3164 3164 3165 3166 3166 3166 3167 3167 3168 3168 3168 3169 3169 3170 3170 3170 3171 3171 3171 3172 3172 3172 3173 3173 3173 3173 3173 3173 3173 3174 3174 3174 3174 3175 3175 3175 3175 3175 3175 3175 3175 3175 3176 3176 3176 3176 3176 3175 3175 3176 3176 3176 3176 3176 3176 3176 3176 3176 3176 3176 3176 3176 3176 3176 3176 3176 3176 3176 3176 3176 3176 3176
3139 3140 3142 3143 3143 3145 3146 3147 3148 3148 3150 3150 3151 3152 3153 3153 3154 3155 3156 3156 3156 3156 3158 3158 3159 3160 3160 3161 3161 3161 3162 3163 3164 3164 3165 3165 3166 3166 3167 3167 3168 3168 3168 3169 3169 3170 3170 3170 3171 3171 3171 3171 3172 3172 3172 3173 3173 3173 3173 3173 3173 3173 3173 3174 3174 3174 3174 3174 3174 3174 3175 3175 3175 3175 3175 3175 3175 3175 3175 3175 3175 3175 3175 3175 3175 3175 3175 3175 3175 3175 3175 3175 3175 3175 3175 3175 3175 3175 3175 3175 3175 3175 3175
3139 3140 3141 3142 3143 3143 3145 3146 3147 3148 3148 3149 3150 3151 3152 3153 3153 3154 3155 3155 3156 3156 3157 3157 3158 3158 3159 3160 3160 3161 3161 3162 3162 3163 3163 3164 3165 3166 3166 3167 3167 3168 3168 3168 3168 3169 3169 3170 3170 3170 3171 3171 3171 3171 3172 3172 3172 3172 3172 3172 3172 3173 3173 3173 3173 3173 3174 3174 3174 3174 3174 3174 3174 3174 3174 3175 3175 3175 3175 3174 3174 3174 3174 3174 3174 3174 3174 3174 3174 3174 3174 3174 3174 3174 3174 3174 3174 3174 3174 3174 3174 3174 3174
3138 3139 3140 3140 3141 3142 3143 3145 3146 3147 3148 3148 3149 3150 3151 3152 3153 3153 3154 3155 3156 3156 3156 3156 3157 3158 3158 3159 3159 3160 3160 3161 3161 3162 3163 3163 3164 3165 3165 3166 3166 3167 3167 3167 3168 3168 3169 3169 3169 3170 3170 3170 3171 3171 3171 3171 3172 3172 3172 3172 3172 3172 3172 3172 3173 3173 3173 3173 3173 3173 3174 3174 3174 3174 3174 3174 3174 3174 3174 3174 3174 3174 3174 3173 3173 3173 3173 3173 3173 3173 3173 3173 3173 3173 3173 3173 3173 3173 3173 3173 3173 3173 3173
3137 3138 3139 3139 3139 3140 3142 3143 3145 3146 3147 3148 3148 3149 3150 3151 3152 3152 3153 3154 3154 3154 3155 3155 3156 3157 3157 3158 3158 3159 3160 3160 3161 3161 3161 3162 3163 3164 3164 3165 3165 3166 3166 3166 3167 3167 3168 3168 3169 3169 3169 3170 3170 3170 3170 3170 3171 3171 3171 3171 3171 3171 3171 3172 3172 3172 3172 3173 3173 3173 3173 3173 3173 3173 3173 3173 3173 3173 3173 3173 3173 3173 3173 3173 3173 3173 3173 3173 3173 3173 3173 3173 3173 3172 3172 3172 3172 3172 3172 3172 3172 3172 3172
3136 3137 3138 3139 3139 3139 3140 3142 3143 3144 3145 3147 3148 3148 3149 3150 3150 3151 3152 3152 3153 3153 3154 3155 3155 3156 3156 3157 3158 3158 3159 3160 3160 3161 3161 3161 3162 3163 3163 3164 3164 3165 3165 3165 3166 3166 3167 3168 3168 3168 3168 3169 3169 3169 3169 3170 3170 3170 3171 3170 3170 3170 3170 3171 3171 3171 3171 3172 3172 3172 3172 3172 3173 3173 3173 3173 3173 3173 3173 3173 3173 3173 3173 3173 3173 3172 3172 3172 3172 3172 3172 3171 3171 3171 3171 3171 3171 3171 3171 3171 3171 3171 3171
3134 3136 3137 3138 3137 3137 3139 3141 3142 3143 3144 3145 3146 3147 3148 3149 3149 3150 3151 3151 3152 3153 3153 3154 3155 3155 3155 3156 3157 3158 3158 3159 3159 3160 3160 3161 3161 3161 3162 3163 3163 3163 3163 3164 3164 3165 3166 3167 3167 3168 3168 3168 3168 3168 3168 3169 3169 3169 3170 3170 3170 3170 3170 3170 3170 3170 3170 3171 3171 3171 3171 3171 3171 3172 3172 3172 3172 3172 3172 3172 3172 3172 3172 3172 3172 3172 3172 3171 3171 3171 3171 3170 3170 3170 3170 3170 3170 3170 3170 3170 3170 3170 3170
3133 3133 3135 3135 3136 3137 3138 3139 3140 3141 3143 3143 3145 3146 3147 3148 3148 3149 3149 3150 3151 3151 3152 3153 3153 3154 3154 3155 3156 3157 3157 3158 3158 3158 3159 3160 3160 3160 3161 3162 3162 3162 3162 3163 3163 3164 3165 3165 3166 3166 3167 3167 3167 3167 3168 3168 3168 3168 3169 3169 3169 3169 3169 3169 3169 3169 3169 3170 3170 3170 3170 3170 3170 3170 3171 3171 3171 3171 3171 3171 3171 3171 3171 3171 3171 3171 3171 3171 3170 3170 3170 3170 3170 3169 3169 3169 3169 3169 3169 3169 3168 3168 3168
3131 3132 3133 3134 3135 3136 3137 3138 3139 3140 3141 3142 3143 3144 3146 3146 3147 3148 3148 3149 3149 3150 3151 3152 3152 3153 3153 3154 3155 3156 3156 3156 3157 3158 3158 3158 3159 3159 3159 3161 3162 3162 3162 3162 3163 3163 3164 3164 3164 3165 3166 3165 3165 3166 3166 3167 3167 3168 3168 3168 3168 3168 3168 3168 3168 3168 3168 3168 3169 3169 3169 3169 3169 3169 3169 3169 3169 3169 3170 3170 3170 3170 3170 3170 3170 3170 3170 3170 3170 3170 3169 3169 3169 3168 3168 3168 3168 3168 3168 3168 3168 3167 3167
3130 3131 3132 3133 3134 3135 3136 3137 3138 3139 3140 3141 3142 3143 3144 3145 3146 3146 3147 3148 3148 3149 3150 3150 3151 3151 3152 3153 3154 3154 3155 3155 3156 3156 3157 3157 3158 3158 3158 3159 3160 3161 3161 3161 3162 3162 3163 3163 3163 3164 3164 3164 3164 3164 3165 3166 3166 3167 3167 3167 3167 3168 3168 3168 3168 3167 3168 3168 3168 3168 3168 3168 3168 3168 3168 3168 3168 3168 3168 3168 3168 3168 3168 3168 3169 3169 3168 3168 3168 3168 3168 3168 3168 3168 3168 3167 3167 3167 3167 3167 3166 3166 3166
3130 3130 3131 3132 3133 3134 3135 3136 3137 3138 3139 3139 3140 3141 3142 3143 3144 3145 3146 3146 3147 3148 3148 3149 3150 3150 3151 3152 3153 3153 3154 3154 3155 3155 3156 3156 3157 3157 3158 3158 3158 3159 3159 3159 3160 3160 3161 3162 3162 3163 3163 3163 3163 3163 3164 3164 3165 3165 3166 3166 3166 3167 3167 3167 3167 3167 3167 3167 3167 3167 3167 3167 3167 3167 3167 3167 3167 3168 3168 3168 3167 3167 3167 3167 3167 3167 3167 3167 3167 3167 3167 3167 3167 3167 3167 3166 3166 3166 3166 3165 3165 3165 3165
3129 3129 3130 3131 3132 3133 3134 3135 3136 3137 3138 3138 3139 3140 3141 3142 3143 3143 3144 3145 3145 3146 3147 3148 3148 3149 3149 3150 3151 3152 3153 3153 3153 3154 3154 3155 3156 3156 3156 3157 3157 3158 3158 3158 3159 3159 3160 3161 3161 3161 3162 3162 3162 3163 3163 3163 3163 3164 3164 3165 3165 3165 3166 3166 3166 3166 3166 3166 3166 3166 3166 3166 3166 3166 3166 3166 3166 3166 3166 3166 3166 3166 3166 3166 3166 3166 3166 3166 3166 3166 3166 3166 3166 3166 3165 3165 3165 3165 3164 3164 3164 3164 3163
3128 3128 3129 3130 3131 3132 3133 3134 3135 3135 3136 3137 3138 3138 3139 3140 3141 3142 3143 3143 3144 3144 3145 3146 3147 3147 3148 3148 3149 3150 3151 3152 3152 3153 3153 3154 3154 3155 3155 3155 3156 3156 3157 3157 3158 3158 3159 3159 3160 3160 3161 3161 3161 3162 3162 3162 3163 3163 3163 3163 3164 3164 3165 3165 3165 3165 3165 3165 3165 3165 3165 3165 3165 3165 3165 3165 3165 3165 3165 3165 3165 3165 3165 3164 3164 3164 3164 3164 3164 3164 3164 3164 3164 3164 3164 3164 3163 3163 3163 3163 3163 3163 3162
3126 3127 3128 3129 3130 3131 3132 3133 3133 3134 3135 3136 3136 3137 3138 3138 3139 3140 3141 3142 3143 3143 3144 3144 3145 3146 3146 3147 3148 3148 3149 3150 3150 3151 3152 3152 3153 3153 3154 3154 3154 3155 3155 3156 3156 3157 3158 3158 3158 3159 3159 3160 3160 3161 3161 3161 3161 3161 3162 3162 3163 3163 3163 3164 3164 3164 3164 3164 3165 3165 3165 3164 3164 3164 3164 3164 3164 3164 3164 3164 3164 3163 3163 3163 3163 3163 3163 3163 3162 3162 3162 3162 3162 3162 3162 3162 3162 3162 3161 3161 3161 3161 3160
3125 3126 3127 3128 3129 3130 3131 3132 3133 3133 3133 3134 3135 3135 3136 3137 3138 3138 3139 3140 3141 3142 3142 3143 3144 3144 3145 3145 3146 3147 3147 3148 3149 3149 3150 3151 3151 3152 3152 3153 3153 3153 3154 3155 3155 3156 3156 3157 3157 3158 3158 3158 3159 3159 3159 3160 3160 3160 3160 3161 3161 3162 3162 3162 3163 3163 3163 3163 3163 3163 3164 3164 3163 3163 3163 3163 3163 3163 3163 3163 3162 3162 3162 3162 3162 3162 3161 3161 3161 3161 3160 3160 3160 3160 3160 3160 3160 3160 3159 3159 3159 3159 3158
3124 3125 3125 3126 3128 3129 3130 3131 3131 3132 3132 3133 3133 3134 3135 3135 3136 3137 3138 3138 3139 3140 3141 3142 3142 3143 3143 3144 3144 3145 3146 3146 3147 3148 3148 3149 3149 3150 3151 3151 3152 3152 3153 3153 3153 3154 3154 3155 3155 3156 3156 3157 3157 3158 3158 3158 3158 3158 3159 3159 3160 3160 3160 3161 3161 3161 3161 3161 3162 3162 3162 3162 3162 3162 3162 3162 3162 3162 3161 3161 3161 3161 3160 3160 3160 3160 3160 3160 3159 3159 3159 3158 3158 3158 3158 3158 3158 3158 3158 3158 3157 3157 3157
3123 3124 3124 3125 3126 3128 3129 3129 3130 3131 3131 3132 3132 3133 3133 3134 3135 3136 3136 3137 3138 3138 3139 3140 3141 3141 3142 3142 3143 3143 3144 3145 3145 3146 3147 3147 3148 3148 3149 3149 3150 3151 3151 3152 3152 3153 3153 3153 3153 3154 3154 3155 3155 3156 3156 3157 3157 3157 3157 3158 3158 3158 3158 3159 3159 3159 3159 3160 3160 3160 3160 3160 3160 3160 3160 3160 3160 3160 3160 3160 3159 3159 3159 3159 3158 3158 3158 3158 3158 3158 3157 3157 3157 3156 3156 3156 3156 3156 3156 3156 3156 3155 3155
3122 3123 3123 3124 3125 3127 3127 3128 3128 3129 3130 3130 3131 3132 3132 3133 3134 3134 3135 3135 3136 3137 3137 3138 3139 3140 3140 3141 3141 3142 3143 3143 3144 3144 3145 3145 3146 3146 3147 3147 3148 3149 3149 3150 3150 3151 3151 3152 3152 3152 3153 3153 3153 3154 3154 3155 3155 3155 3155 3156 3156 3157 3157 3157 3157 3157 3158 3158 3158 3158 3158 3158 3158 3158 3158 3158 3158 3158 3158 3158 3158 3158 3158 3157 3157 3157 3157 3156 3156 3156 3155 3155 3155 3154 3154 3153 3153 3153 3153 3153 3153 3153 3153
3121 3122 3122 3123 3124 3125 3126 3127 3127 3128 3128 3129 3130 3130 3131 3132 3132 3133 3133 3134 3134 3135 3136 3136 3137 3138 3139 3139 3140 3141 3141 3142 3142 3143 3143 3143 3144 3144 3145 3146 3146 3147 3148 3148 3148 3149 3149 3150 3150 3150 3151 3151 3152 3152 3153 3153 3153 3153 3154 3154 3154 3155 3155 3155 3155 3155 3155 3156 3156 3156 3156 3156 3156 3156 3156 3156 3156 3156 3156 3156 3156 3156 3156 3156 3155 3155 3155 3154 3154 3154 3153 3153 3153 3152 3152 3151 3151 3151 3151 3150 3150 3150 3150
3120 3120 3121 3122 3123 3124 3124 3125 3126 3126 3127 3128 3128 3129 3129 3130 3131 3131 3132 3132 3133 3133 3134 3135 3135 3136 3137 3138 3138 3139 3140 3140 3141 3141 3141 3142 3142 3143 3143 3144 3145 3145 3146 3146 3147 3147 3148 3148 3148 3148 3149 3149 3150 3150 3151 3152 3152 3152 3152 3152 3153 3153 3153 3153 3153 3153 3153 3153 3153 3154 3154 3154 3154 3154 3153 3153 3153 3154 3154 3154 3154 3154 3154 3154 3154 3153 3153 3153 3152 3152 3151 3151 3150 3150 3149 3149 3149 3148 3148 3148 3148 3148 3148
3118 3119 3119 3120 3121 3122 3123 3123 3124 3125 3125 3126 3127 3127 3128 3128 3129 3130 3130 3131 3132 3132 3133 3133 3133 3134 3135 3136 3137 3137 3138 3138 3139 3139 3139 3140 3140 3141 3142 3142 3143 3143 3144 3144 3144 3145 3145 3146 3146 3147 3147 3148 3148 3148 3149 3150 3150 3150 3150 3150 3150 3151 3151 3151 3151 3151 3151 3151 3151 3152 3152 3152 3152 3152 3152 3151 3151 3151 3151 3152 3152 3152 3152 3152 3152 3152 3151 3151 3150 3149 3149 3148 3148 3148 3147 3147 3147 3146 3146 3146 3146 3145 3145
3117 3118 3118 3119 3120 3121 3121 3122 3123 3123 3124 3124 3125 3126 3126 3127 3128 3128 3129 3130 3130 3131 3131 3131 3132 3132 3133 3134 3134 3135 3136 3136 3137 3137 3138 3138 3139 3139 3140 3140 3141 3141 3142 3142 3143 3143 3143 3144 3144 3145 3145 3146 3146 3147 3147 3148 3148 3148 3148 3148 3148 3148 3149 3149 3149 3149 3149 3149 3149 3149 3149 3149 3149 3149 3149 3149 3149 3149 3149 3149 3149 3149 3149 3149 3149 3149 3148 3148 3148 3147 3146 3146 3145 3145 3145 3145 3144 3144 3144 3144 3144 3143 3143
3116 3116 3117 3118 3118 3119 3120 3120 3121 3122 3122 3123 3123 3124 3124 3125 3126 3127 3128 3128 3128 3129 3129 3129 3130 3131 3131 3132 3133 3133 3134 3134 3135 3135 3136 3137 3137 3138 3138 3138 3139 3139 3140 3140 3141 3141 3141 3142 3142 3143 3143 3144 3145 3145 3145 3145 3145 3145 3146 3146 3146 3146 3147 3147 3147 3147 3147 3147 3147 3147 3147 3147 3147 3147 3147 3147 3147 3147 3147 3147 3146 3146 3146 3146 3147 3146 3146 3145 3145 3144 3143 3143 3142 3142 3142 3142 3142 3142 3142 3142 3142 3141 3141
3114 3115 3115 3116 3117 3117 3118 3119 3119 3120 3121 3121 3122 3122 3123 3123 3124 3125 3126 3126 3127 3127 3127 3128 3128 3129 3130 3130 3131 3132 3132 3133 3133 3134 3134 3135 3135 3136 3136 3136 3137 3137 3138 3138 3139 3139 3140 3140 3141 3141 3142 3142 3143 3143 3143 3143 3143 3143 3143 3144 3144 3144 3144 3144 3144 3144 3144 3144 3144 3145 3145 3145 3145 3144 3144 3144 3144 3144 3144 3144 3144 3143 3143 3144 3144 3144 3143 3142 3141 3141 3140 3139 3138 3139 3139 3140 3141 3140 3140 3140 3140 3139 3139
3113 3113 3113 3114 3115 3116 3116 3117 3118 3118 3119 3120 3120 3121 3121 3122 3123 3123 3124 3124 3124 3125 3125 3126 3127 3127 3128 3129 3129 3130 3130 3131 3131 3132 3133 3133 3134 3134 3134 3135 3135 3136 3136 3137 3137 3137 3138 3139 3139 3140 3140 3141 3141 3140 3140 3141 3141 3141 3141 3142 3142 3142 3142 3142 3142 3142 3142 3142 3142 3143 3142 3142 3142 3142 3142 3142 3142 3142 3141 3141 3141 3141 3141 3141 3141 3140 3140 3139 3138 3137 3136 3136 3137 3138 3138 3138 3138 3138 3138 3138 3138 3138 3138
3111 3111 3112 3113 3113 3114 3114 3115 3116 3117 3117 3118 3118 3119 3119 3120 3121 3121 3122 3122 3123 3123 3124 3124 3125 3126 3127 3127 3128 3128 3128 3129 3129 3130 3131 3131 3132 3133 3133 3133 3133 3134 3135 3135 3135 3135 3136 3137 3138 3138 3138 3138 3138 3138 3138 3139 3139 3139 3140 3140 3140 3140 3140 3140 3140 3140 3140 3140 3140 3140 3140 3140 3140 3140 3139 3139 3139 3139 3139 3138 3138 3138 3138 3138 3137 3136 3135 3133 3133 3134 3135 3136 3136 3137 3137 3136 3136 3136 3135 3136 3136 3136 3136
3108 3109 3110 3110 3111 3112 3112 3113 3114 3115 3116 3116 3117 3117 3117 3118 3119 3120 3120 3121 3121 3122 3123 3123 3124 3124 3125 3125 3126 3126 3127 3127 3127 3128 3128 3129 3130 3131 3131 3132 3132 3132 3133 3133 3133 3133 3134 3135 3135 3135 3136 3136 3136 3136 3137 3137 3137 3138 3138 3138 3138 3138 3138 3138 3138 3138 3138 3138 3138 3138 3138 3138 3138 3138 3138 3137 3137 3137 3137 3136 3136 3136 3135 3135 3133 3132 3131 3132 3132 3133 3134 3134 3135 3135 3135 3134 3134 3133 3133 3134 3134 3134 3134
3107 3107 3108 3108 3109 3110 3110 3111 3112 3113 3114 3114 3114 3115 3115 3116 3117 3118 3118 3119 3120 3121 3121 3122 3122 3122 3123 3123 3124 3124 3125 3125 3126 3126 3127 3127 3128 3129 3129 3130 3130 3131 3131 3131 3132 3132 3132 3133 3133 3133 3133 3134 3134 3134 3134 3135 3135 3135 3135 3136 3136 3136 3136 3136 3136 3136 3136 3137 3137 3137 3137 3137 3136 3136 3136 3135 3135 3135 3134 3134 3134 3134 3133 3132 3130 3129 3130 3130 3131 3131 3132 3132 3133 3133 3133 3133 3132 3132 3132 3132 3132 3133 3133
3104 3105 3106 3106 3107 3108 3108 3109 3110 3111 3112 3112 3113 3113 3113 3114 3115 3116 3117 3118 3118 3119 3119 3119 3120 3120 3120 3121 3122 3123 3123 3123 3124 3124 3124 3125 3126 3127 3127 3128 3128 3129 3129 3129 3130 3130 3130 3131 3131 3132 3131 3132 3132 3132 3132 3132 3133 3133 3133 3133 3134 3134 3134 3134 3135 3135 3134 3134 3135 3135 3135 3134 3134 3134 3133 3133 3133 3133 3133 3133 3133 3132 3130 3128 3127 3128 3128 3128 3128 3128 3129 3129 3130 3130 3130 3130 3130 3130 3130 3130 3130 3130 3130
3102 3103 3103 3104 3105 3106 3107 3107 3108 3109 3109 3110 3111 3111 3112 3113 3113 3114 3115 3115 3116 3117 3117 3117 3118 3118 3119 3119 3120 3121 3121 3122 3122 3122 3123 3123 3123 3124 3125 3126 3126 3127 3127 3127 3128 3128 3128 3129 3130 3130 3129 3130 3130 3130 3130 3130 3131 3131 3131 3131 3131 3132 3132 3132 3132 3133 3133 3133 3133 3133 3133 3132 3132 3131 3131 3130 3129 3129 3129 3130 3129 3128 3127 3126 3126 3127 3127 3127 3127 3127 3127 3127 3128 3128 3128 3128 3128 3128 3128 3128 3128 3127 3127
3100 3101 3101 3102 3103 3104 3104 3105 3106 3107 3107 3108 3108 3109 3110 3111 3111 3112 3113 3113 3114 3114 3115 3115 3116 3117 3117 3118 3119 3119 3120 3120 3120 3119 3120 3121 3122 3123 3123 3124 3124 3124 3125 3125 3126 3127 3127 3127 3128 3128 3128 3128 3128 3128 3128 3128 3128 3129 3129 3129 3129 3130 3130 3130 3130 3130 3130 3130 3130 3131 3130 3130 3129 3129 3128 3127 3126 3126 3126 3127 3126 3126 3126 3125 3125 3125 3125 3125 3125 3125 3125 3125 3125 3125 3126 3126 3126 3126 3126 3126 3125 3125 3124
3098 3099 3099 3100 3101 3102 3103 3103 3104 3104 3105 3106 3107 3107 3108 3109 3109 3110 3111 3111 3112 3112 3113 3113 3114 3115 3116 3117 3117 3118 3118 3118 3118 3118 3118 3118 3119 3120 3121 3121 3122 3122 3123 3123 3124 3124 3125 3125 3126 3126 3127 3127 3126 3126 3126 3126 3126 3127 3127 3127 3128 3128 3128 3128 3128 3129 3129 3128 3128 3128 3128 3127 3126 3124 3123 3123 3123 3124 3124 3124 3124 3124 3123 3123 3123 3123 3123 3123 3123 3123 3123 3123 3123 3123 3124 3124 3124 3123 3123 3123 3123 3123 3122
3096 3097 3098 3098 3099 3100 3101 3101 3102 3103 3103 3104 3105 3105 3106 3107 3107 3108 3108 3109 3110 3110 3111 3111 3112 3113 3114 3115 3115 3116 3116 3116 3116 3116 3116 3116 3117 3117 3118 3118 3119 3120 3121 3122 3122 3123 3123 3123 3124 3124 3124 3124 3125 3125 3125 3125 3125 3125 3125 3125 3126 3126 3126 3127 3127 3127 3127 3127 3126 3125 3124 3123 3122 3121 3119 3120 3121 3122 3122 3122 3122 3122 3122 3122 3122 3122 3122 3122 3122 3122 3122 3122 3122 3121 3122 3121 3121 3121 3121 3121 3121 3120 3120
3094 3095 3096 3097 3097 3098 3098 3099 3100 3101 3101 3102 3103 3103 3104 3105 3105 3106 3107 3107 3108 3108 3109 3109 3110 3111 3112 3113 3113 3113 3113 3114 3114 3114 3114 3115 3115 3115 3116 3116 3117 3118 3119 3119 3120 3120 3121 3121 3122 3122 3122 3122 3123 3123 3124 3124 3124 3124 3124 3124 3124 3124 3125 3125 3126 3126 3125 3124 3123 3121 3120 3119 3119 3119 3119 3119 3119 3120 3120 3120 3120 3120 3120 3120 3120 3120 3120 3120 3120 3120 3120 3119 3119 3119 3119 3119 3119 3118 3118 3118 3118 3118 3117